Showing default

YAOGAN-35 03B, 53318

Orbit data source: Space-Track

YAOGAN-35 03B, 53318 is a payload satellite owned by PLA GAD (CN) in LEO that was launched on Fri, 29 Jul 2022 UTC via a CHANG ZHENG 2D launch vehicle from the Xichang Space Center, China (XSC). Payload-class satellites include a variety of spacecraft equipped with specific instruments for various scientific and technological missions. These include communications satellites like Starlink; space stations such as the ISS; scientific satellites like the Hubble; Earth observation satellites from companies like Planet Labs, Umbra, and HawkEye 360; GPS; miniature CubeSats for education and research; and military/defense satellites.

Loading next visibility...
Identifier
53318, 2022-088C
Orbit
LEO
Country
Flag of CNCN / PRC
Related business
Manufacturer
DFH
Mission
Operational Defense Sigint
Bus & Motor
Unknown
Mass
~300 kg wet, ~300 kg dry
Launch date (UTC)
2022-07-29 (4 years ago)
Launch vehicle
CHANG ZHENG 2D
Launch site
Xichang Space Center, China (XSC)
Object type
Payload
Rocket body
Debris
Shape & HBR
Box + 2 Pan, 2.5 m
Radar Cross Section
11.063 m², Large (>1 m²)

Expand to show TLE details & history
Last TLE update: 1 day ago

TLE from 1 day ago
0 YAOGAN-35 03B
1 53318U 22088C   26172.43745295  .00004259  00000-0  16849-3 0  9998
2 53318  34.9876 181.8994 0010579  58.8872 301.2880 15.24841237216995
Epoch: 2026-06-21T10:29Z
TLE epoch observation values (Epoch: 2026-06-21T10:29:55.934Z)
Latitude
-0.00002°
Longitude
114.77858°
Altitude
486.399 km
Speed
7.626 km/s
True Right ascension
12h 07m 35s
True Declination
0° 00' 00"
Sunlit
Object was in daylight at epoch
Visualization orbit readout
Latitude
Unknown
Longitude
Unknown
Altitude
Unknown
Speed
Unknown
Apparent Right ascension
Unknown
Apparent Declination
Unknown
Sunlit
N/A
Visualization observer readout
Local Sidereal Time
21:25:00
Azimuth
Unknown
Elevation
Unknown
Doppler factor
Unknown
Orbital elements
Apogee altitude
501.788 km
Perigee altitude
487.246 km
Semi-major axis
6,872.654 km
Eccentricity
0.00106
Inclination
34.9876°
RAAN
181.8994°
Arg. of periapsis
58.8872°
True anomaly
301.18433°
Mean anomaly
301.288°
Eccentric anomaly
301.23617°
Mean motion
3.8094 °/min
Orbital period
94.5 mins
BSTAR
0.00016849
Loading maneuver chart data...
Computing Atmospheric mass density...
Loading historical data...
Loading historical data...
Loading historical data...
Loading historical data...
Loading historical data...
Loading historical data...
Loading historical data...
Other satellites on launch #88 in the year 2022 (2022-07-29 UTC)

Documentation

Showing up to 5 results
|